Weather History for KBFD - January, 2014

Change the Weather History Date:

Monday, January 20, 2014

  Actual Average Record
Temperature  
Mean Temperature 20 °F 21 °F  
Max Temperature 29 °F 29 °F 50 °F (2006)
Min Temperature 11 °F 14 °F -18 °F (1984)
Degree Days  
Heating Degree Days 45 38  
Month to date heating degree days 818 760  
Since 1 July heating degree days 3754 3816  
Cooling Degree Days 0 0  
Month to date cooling degree days 0 0  
Year to date cooling degree days 0 0  
Moisture  
Dew Point 17 °F    
Average Humidity 74    
Maximum Humidity 85    
Minimum Humidity 63    
Precipitation  
Precipitation T in 0.10 in 1.04 in (1978)
Month to date precipitation 1.93 2.17  
Year to date precipitation 1.93 2.17  
Sea Level Pressure  
Sea Level Pressure 29.67 in    
Wind  
Wind Speed 10 mph (WNW)    
Max Wind Speed 21 mph    
Max Gust Speed 29 mph    
Visibility 5 miles    
Events Snow    
T = Trace of Precipitation, MM = Missing Value Source: NWS Daily Summary

Daily Weather History Graph

Daily Weather History Graph

Search for Another Location

Airport or City:

Trip Planner

Search our weather history database for the weather conditions in past years. The results will help you decide how hot, cold, wet, or windy it might be!

Date:

Astronomy

Jan. 20, 2014 Rise Set
Actual Time 7:36 AM EST 5:14 PM EST
Civil Twilight 7:06 AM EST 5:45 PM EST
Nautical Twilight 6:32 AM EST 6:19 PM EST
Astronomical Twilight 5:59 AM EST 6:52 PM EST
Moon 9:52 PM EST (1/20) 9:31 AM EST (1/20)
Length of Visible Light 10h 38m
Length of Day
9h 38m
Waning Gibbous, 83% of the Moon is Illuminated
Jan 20
Waning Gibbous
Jan 24
Last Quarter
Jan 30
New
Feb 6
First Quarter
Feb 14
Full

Hourly Weather History & Observations

Time (EST) Temp. Windchill Dew Point Humidity Pressure Visibility Wind Dir Wind Speed Gust Speed Precip Events Conditions
12:53 AM 26.1 °F 16.2 °F 16.0 °F 66% 29.57 in 10.0 mi WSW 10.4 mph 17.3 mph N/A   Overcast
1:53 AM 26.1 °F 17.6 °F 17.1 °F 69% 29.55 in 10.0 mi WSW 8.1 mph 19.6 mph N/A   Overcast
2:53 AM 27.0 °F 19.5 °F 18.0 °F 69% 29.54 in 10.0 mi Variable 6.9 mph 18.4 mph N/A   Overcast
3:53 AM 28.0 °F 18.1 °F 18.0 °F 66% 29.52 in 10.0 mi WSW 11.5 mph 18.4 mph N/A   Overcast
4:53 AM 28.9 °F 19.2 °F 19.0 °F 67% 29.53 in 10.0 mi WSW 11.5 mph 19.6 mph N/A   Overcast
5:53 AM 28.9 °F 21.1 °F 19.9 °F 69% 29.54 in 9.0 mi West 8.1 mph 18.4 mph N/A   Overcast
6:51 AM 28.4 °F 20.4 °F 21.2 °F 74% 29.49 in 7.0 mi West 8.1 mph - N/A   Overcast
6:53 AM 28.0 °F 19.3 °F 21.9 °F 78% 29.55 in 7.0 mi WSW 9.2 mph - N/A   Overcast
7:02 AM 28.0 °F 19.3 °F 21.9 °F 78% 29.49 in 8.0 mi WSW 9.2 mph 17.3 mph N/A   Overcast
7:19 AM 28.0 °F 18.6 °F 21.9 °F 78% 29.49 in 9.0 mi WSW 10.4 mph 21.9 mph N/A   Overcast
7:53 AM 28.0 °F 22.8 °F 21.9 °F 78% 29.58 in 7.0 mi Variable 4.6 mph - N/A   Overcast
8:53 AM 28.0 °F 19.3 °F 23.0 °F 81% 29.59 in 6.0 mi West 9.2 mph 17.3 mph 0.00 in   Haze
9:44 AM 28.9 °F 19.2 °F 24.1 °F 82% 29.54 in 4.0 mi West 11.5 mph 17.3 mph 0.00 in   Haze
9:53 AM 28.9 °F 20.4 °F 24.1 °F 82% 29.60 in 4.0 mi West 9.2 mph - 0.00 in   Overcast
10:53 AM 28.9 °F 21.9 °F 24.1 °F 82% 29.62 in 3.0 mi West 6.9 mph - 0.00 in   Overcast
11:07 AM 28.9 °F 20.4 °F 25.0 °F 85% 29.57 in 2.0 mi West 9.2 mph 18.4 mph 0.00 in Snow Light Snow
11:15 AM 28.9 °F 17.7 °F 25.0 °F 85% 29.57 in 1.8 mi WNW 15.0 mph 20.7 mph 0.00 in Snow Light Snow
11:24 AM 28.9 °F 18.6 °F 24.1 °F 82% 29.57 in 2.0 mi WNW 12.7 mph - 0.00 in Snow Light Snow
11:34 AM 28.9 °F 19.2 °F 24.1 °F 82% 29.57 in 3.0 mi West 11.5 mph 20.7 mph 0.00 in Snow Light Snow
11:51 AM 28.4 °F 19.1 °F 24.8 °F 86% 29.57 in 2.5 mi WNW 10.4 mph - 0.00 in Snow Light Snow
11:53 AM 28.0 °F 17.5 °F 24.1 °F 85% 29.63 in 2.5 mi WNW 12.7 mph - 0.00 in Snow Light Snow
12:29 PM 28.0 °F 18.6 °F 23.0 °F 81% 29.58 in 2.5 mi West 10.4 mph 19.6 mph 0.00 in Snow Light Snow
12:53 PM 27.0 °F 15.6 °F 21.9 °F 81% 29.64 in 2.5 mi WNW 13.8 mph - 0.00 in Snow Light Snow
1:06 PM 27.0 °F 16.1 °F 21.0 °F 78% 29.58 in 4.0 mi WNW 12.7 mph 21.9 mph 0.00 in Snow Light Snow
1:34 PM 27.0 °F 16.1 °F 21.0 °F 78% 29.60 in 2.0 mi WNW 12.7 mph - 0.00 in Snow Light Snow
1:41 PM 27.0 °F 14.7 °F 21.0 °F 78% 29.60 in 1.2 mi WNW 16.1 mph 26.5 mph 0.00 in Snow Light Snow
1:53 PM 26.1 °F 14.0 °F 19.9 °F 78% 29.68 in 1.5 mi NW 15.0 mph 28.8 mph 0.00 in Snow Light Snow
2:01 PM 25.0 °F 11.3 °F 19.0 °F 78% 29.62 in 2.0 mi WNW 18.4 mph 25.3 mph 0.00 in Snow Light Snow
2:08 PM 25.0 °F 10.6 °F 19.0 °F 78% 29.62 in 1.8 mi NW 20.7 mph 25.3 mph 0.00 in Snow Light Snow
2:15 PM 25.0 °F 10.9 °F 19.0 °F 78% 29.62 in 2.0 mi NW 19.6 mph 25.3 mph 0.00 in Snow Light Snow
2:23 PM 25.0 °F 13.1 °F 18.0 °F 75% 29.63 in 3.0 mi WNW 13.8 mph 26.5 mph 0.00 in Snow Light Snow
2:42 PM 24.1 °F 13.1 °F 17.1 °F 75% 29.64 in 3.0 mi WNW 11.5 mph 21.9 mph 0.00 in Snow Light Snow
2:53 PM 23.0 °F 10.1 °F 17.1 °F 78% 29.73 in 2.5 mi WNW 15.0 mph - 0.00 in Snow Light Snow
3:05 PM 23.0 °F 10.1 °F 16.0 °F 74% 29.66 in 3.0 mi WNW 15.0 mph - 0.00 in Snow Light Snow
3:53 PM 21.9 °F 9.8 °F 15.1 °F 75% 29.77 in 2.5 mi West 12.7 mph - 0.00 in Snow Light Snow
4:53 PM 21.0 °F 8.1 °F 14.0 °F 74% 29.79 in 2.5 mi WNW 13.8 mph - 0.00 in Snow Light Snow
5:04 PM 21.0 °F 8.1 °F 14.0 °F 74% 29.72 in 3.0 mi NW 13.8 mph - 0.00 in Snow Light Snow
5:39 PM 19.9 °F 10.1 °F 12.9 °F 74% 29.74 in 9.0 mi WNW 8.1 mph - 0.00 in   Overcast
5:53 PM 19.9 °F 7.9 °F 12.0 °F 71% 29.82 in 9.0 mi NW 11.5 mph - 0.00 in Snow Light Snow
6:53 PM 18.0 °F 5.4 °F 10.9 °F 74% 29.86 in 5.0 mi NW 11.5 mph - 0.00 in Snow Light Snow
7:04 PM 17.1 °F 3.6 °F 10.0 °F 74% 29.79 in 5.0 mi NNW 12.7 mph - 0.00 in Snow Light Snow
7:25 PM 17.1 °F 5.8 °F 10.0 °F 74% 29.80 in 6.0 mi NW 9.2 mph - 0.00 in Snow Light Snow
7:53 PM 15.1 °F 2.5 °F 8.1 °F 74% 29.90 in 4.0 mi North 10.4 mph - 0.00 in Snow Light Snow
8:19 PM 15.1 °F 4.2 °F 8.1 °F 74% 29.82 in 4.0 mi NNW 8.1 mph - 0.00 in Snow Light Snow
8:53 PM 14.0 °F 3.9 °F 8.1 °F 77% 29.91 in 4.0 mi NNW 6.9 mph - 0.00 in Snow Light Snow
9:17 PM 14.0 °F 2.9 °F 7.0 °F 74% 29.83 in 3.0 mi NNW 8.1 mph - 0.00 in Snow Light Snow
9:53 PM 12.9 °F 1.6 °F 7.0 °F 77% 29.92 in 3.0 mi North 8.1 mph - 0.00 in Snow Light Snow
10:53 PM 12.0 °F 4.1 °F 3.9 °F 70% 29.93 in 10.0 mi NNW 4.6 mph - 0.00 in   Overcast
11:48 PM 12.2 °F 1.7 °F 3.2 °F 67% 29.85 in 6.0 mi North 6.9 mph - 0.00 in Snow Light Snow
11:53 PM 12.0 °F 0.5 °F 3.9 °F 70% 29.93 in 5.0 mi North 8.1 mph - 0.00 in Snow Light Snow